Weather History for Wolf Creek Pass, CO

Change the Weather History Date:

Friday, February 1, 2013

  Actual Average (KALS) Record (KALS)
Temperature  
Mean Temperature 14 °F 18 °F  
Max Temperature 19 °F 36 °F 60 °F (2003)
Min Temperature 10 °F 1 °F -30 °F (1951)
Degree Days  
Heating Degree Days 50 47  
Month to date heating degree days 47  
Since 1 July heating degree days 5194  
Cooling Degree Days 0 0  
Month to date cooling degree days 0  
Year to date cooling degree days 0  
Moisture  
Dew Point 12 °F    
Average Humidity 91    
Maximum Humidity 100    
Minimum Humidity 42    
Precipitation  
Precipitation 0.01 in 0.01 in 0.22 in (2004)
Month to date precipitation 0.01  
Year to date precipitation 0.27  
Snow  
Snow 0.00 in 0.10 in 3.60 in (1959)
Month to date snowfall 0.1  
Since 1 July snowfall 14.4  
Snow Depth -    
Sea Level Pressure  
Sea Level Pressure 30.23 in    
Wind  
Wind Speed 14 mph (SW)    
Max Wind Speed 20 mph    
Max Gust Speed 26 mph    
Visibility 6 miles    
Events Fog    
T = Trace of Precipitation, MM = Missing Value Source: NWS Daily Summary

Daily Weather History Graph

Daily Weather History Graph

Search for Another Location

Airport:

Trip Planner

Search our weather history database for the weather conditions in past years. The results will help you decide how hot, cold, wet, or windy it might be!

Date:

Astronomy

Feb. 01, 2013 Rise Set
Actual Time 7:10 AM MST 5:31 PM MST
Civil Twilight 6:42 AM MST 5:59 PM MST
Nautical Twilight 6:11 AM MST 6:30 PM MST
Astronomical Twilight 5:40 AM MST 7:01 PM MST
Moon 11:33 PM MST (2/1) 9:53 AM MST (2/1)
Length of Visible Light 11h 16m
Length of Day
10h 21m
Waning Gibbous, 69% of the Moon is Illuminated
Feb 1
Waning Gibbous
Feb 3
Last Quarter
Feb 10
New
Feb 17
First Quarter
Feb 25
Full

Hourly Weather History & Observations

Time (MST) Temp. Windchill Dew Point Humidity Pressure Visibility Wind Dir Wind Speed Gust Speed Precip Events Conditions
12:10 AM 12.2 °F -5.3 °F 10.4 °F 92% 30.23 in 10.0 mi SW 18.4 mph 23.0 mph N/A   Clear
12:30 AM 12.2 °F -5.3 °F 10.4 °F 92% 30.22 in 10.0 mi SW 18.4 mph - N/A   Clear
12:50 AM 12.2 °F -3.7 °F 10.4 °F 92% 30.23 in 10.0 mi SW 15.0 mph - N/A   Clear
1:10 AM 12.2 °F -3.1 °F 10.4 °F 92% 30.22 in 10.0 mi SW 13.8 mph - N/A   Clear
1:30 AM 10.4 °F -5.4 °F 10.4 °F 100% 30.22 in 10.0 mi SW 13.8 mph - N/A   Scattered Clouds
1:50 AM 12.2 °F -3.1 °F 10.4 °F 92% 30.22 in 2.0 mi SW 13.8 mph - N/A   Overcast
2:10 AM 12.2 °F -3.7 °F 10.4 °F 92% 30.22 in 0.8 mi SW 15.0 mph - N/A   Overcast
2:30 AM 12.2 °F -3.1 °F 10.4 °F 92% 30.22 in 4.0 mi SSW 13.8 mph 19.6 mph N/A   Overcast
2:50 AM 12.2 °F -3.7 °F 10.4 °F 92% 30.22 in 5.0 mi SSW 15.0 mph 20.7 mph N/A   Mostly Cloudy
3:10 AM 10.4 °F -5.4 °F 10.4 °F 100% 30.20 in 10.0 mi SSW 13.8 mph 20.7 mph N/A   Scattered Clouds
3:30 AM 10.4 °F -4.1 °F 10.4 °F 100% 30.20 in 10.0 mi SW 11.5 mph 17.3 mph N/A   Mostly Cloudy
3:50 AM 10.4 °F -5.4 °F 10.4 °F 100% 30.20 in 10.0 mi SW 13.8 mph - N/A   Overcast
4:10 AM 10.4 °F -5.4 °F 10.4 °F 100% 30.19 in 7.0 mi SW 13.8 mph - N/A   Overcast
4:30 AM 10.4 °F -5.4 °F 10.4 °F 100% 30.19 in 1.8 mi SSW 13.8 mph 21.9 mph N/A   Overcast
4:50 AM 10.4 °F -4.8 °F 10.4 °F 100% 30.19 in 1.0 mi SW 12.7 mph - N/A   Overcast
5:10 AM 10.4 °F -4.8 °F 10.4 °F 100% 30.19 in 0.5 mi SW 12.7 mph - N/A Fog Light Freezing Fog
5:30 AM 10.4 °F -5.4 °F 10.4 °F 100% 30.19 in 0.5 mi SW 13.8 mph - N/A Fog Light Freezing Fog
5:50 AM 10.4 °F -4.8 °F 10.4 °F 100% 30.19 in 0.5 mi SW 12.7 mph - N/A Fog Light Freezing Fog
6:10 AM 10.4 °F -4.8 °F 10.4 °F 100% 30.19 in 0.5 mi SW 12.7 mph 19.6 mph N/A Fog Light Freezing Fog
6:30 AM 12.2 °F -3.7 °F 10.4 °F 92% 30.19 in 0.8 mi SW 15.0 mph 19.6 mph N/A   Overcast
6:50 AM 12.2 °F -1.0 °F 10.4 °F 92% 30.19 in 1.2 mi SW 10.4 mph - N/A   Overcast
7:10 AM 10.4 °F -4.8 °F 10.4 °F 100% 30.19 in 0.8 mi SW 12.7 mph - N/A   Overcast
7:30 AM 10.4 °F -4.1 °F 10.4 °F 100% 30.19 in 0.5 mi SSW 11.5 mph 18.4 mph N/A Fog Light Freezing Fog
7:50 AM 10.4 °F -5.4 °F 8.6 °F 92% 30.20 in 10.0 mi SW 13.8 mph 21.9 mph N/A   Scattered Clouds
8:10 AM 10.4 °F -4.1 °F 8.6 °F 92% 30.20 in 10.0 mi SSW 11.5 mph - N/A   Clear
8:30 AM 12.2 °F -3.1 °F 10.4 °F 92% 30.20 in 10.0 mi SSW 13.8 mph 21.9 mph N/A   Clear
8:50 AM 12.2 °F -3.1 °F 10.4 °F 92% 30.20 in 10.0 mi SSW 13.8 mph - N/A   Clear
9:10 AM 14.0 °F -0.2 °F 12.2 °F 93% 30.22 in 10.0 mi SW 12.7 mph - N/A   Clear
9:30 AM 15.8 °F 0.3 °F 12.2 °F 86% 30.22 in 10.0 mi SW 16.1 mph - N/A   Clear
9:50 AM 15.8 °F 3.4 °F 14.0 °F 93% 30.22 in 10.0 mi SW 10.4 mph 19.6 mph N/A   Clear
10:10 AM 17.6 °F 6.4 °F 14.0 °F 86% 30.22 in 10.0 mi SSW 9.2 mph 16.1 mph N/A   Clear
10:30 AM 17.6 °F 9.3 °F 14.0 °F 86% 30.23 in 10.0 mi SSW 5.8 mph - N/A   Scattered Clouds
10:50 AM 17.6 °F 7.3 °F 15.8 °F 93% 30.24 in 10.0 mi SSW 8.1 mph - N/A   Scattered Clouds
11:10 AM 17.6 °F 4.3 °F 15.8 °F 93% 30.23 in 10.0 mi SW 12.7 mph - N/A   Clear
11:30 AM 17.6 °F 3.2 °F 15.8 °F 93% 30.23 in 10.0 mi SW 15.0 mph - N/A   Clear
11:50 AM 19.4 °F 6.0 °F 15.8 °F 86% 30.23 in 10.0 mi SSW 13.8 mph 19.6 mph N/A   Clear
12:10 PM 17.6 °F 5.7 °F 15.8 °F 93% 30.23 in 10.0 mi SSW 10.4 mph 26.5 mph N/A   Scattered Clouds
12:30 PM 19.4 °F 6.0 °F 17.6 °F 93% 30.22 in 10.0 mi SSW 13.8 mph 19.6 mph N/A   Mostly Cloudy
12:50 PM 19.4 °F 7.2 °F 15.8 °F 86% 30.22 in 10.0 mi SSW 11.5 mph 20.7 mph N/A   Mostly Cloudy
1:10 PM 19.4 °F 6.0 °F 17.6 °F 93% 30.22 in 10.0 mi SW 13.8 mph 19.6 mph 0.01 in   Scattered Clouds
1:30 PM 19.4 °F 6.0 °F 15.8 °F 86% 30.20 in 10.0 mi SSW 13.8 mph 23.0 mph 0.01 in   Scattered Clouds
1:50 PM 19.4 °F 6.0 °F 17.6 °F 93% 30.20 in 10.0 mi SW 13.8 mph 20.7 mph 0.01 in   Clear
2:10 PM 19.4 °F 5.5 °F 15.8 °F 86% 30.21 in 10.0 mi SW 15.0 mph 20.7 mph N/A   Scattered Clouds
2:30 PM 19.4 °F 5.0 °F 17.6 °F 93% 30.21 in 10.0 mi SSW 16.1 mph 25.3 mph N/A   Scattered Clouds
2:50 PM 17.6 °F 4.3 °F 15.8 °F 93% 30.22 in 10.0 mi SSW 12.7 mph 20.7 mph N/A   Mostly Cloudy
3:10 PM 19.4 °F 4.5 °F 17.6 °F 93% 30.22 in 10.0 mi SSW 17.3 mph 24.2 mph N/A   Overcast
3:30 PM 17.6 °F 4.3 °F 17.6 °F 100% 30.22 in 2.5 mi SSW 12.7 mph 20.7 mph N/A   Overcast
3:50 PM 17.6 °F 4.3 °F 17.6 °F 100% 30.22 in 2.5 mi SSW 12.7 mph 17.3 mph N/A   Overcast
4:10 PM 17.6 °F 3.2 °F 17.6 °F 100% 30.22 in 0.2 mi SW 15.0 mph 20.7 mph N/A Fog Light Freezing Fog
4:30 PM 17.6 °F 5.0 °F 17.6 °F 100% 30.22 in 0.2 mi SSW 11.5 mph - N/A Fog Light Freezing Fog
4:50 PM 17.6 °F 2.7 °F 17.6 °F 100% 30.23 in 0.2 mi SSW 16.1 mph - N/A Fog Light Freezing Fog
5:10 PM 17.6 °F 5.0 °F 15.8 °F 93% 30.24 in 0.2 mi SSW 11.5 mph - N/A Fog Light Freezing Fog
5:30 PM 17.6 °F 6.4 °F 15.8 °F 93% 30.24 in 0.2 mi SSW 9.2 mph 16.1 mph N/A Fog Light Freezing Fog
5:50 PM 17.6 °F 4.3 °F 15.8 °F 93% 30.24 in 0.2 mi SSW 12.7 mph 19.6 mph N/A Fog Light Freezing Fog
6:10 PM 17.6 °F 5.7 °F 15.8 °F 93% 30.26 in 0.2 mi SW 10.4 mph 17.3 mph N/A Fog Light Freezing Fog
6:30 PM 15.8 °F 1.4 °F 15.8 °F 100% 30.27 in 0.2 mi SSW 13.8 mph 18.4 mph N/A Fog Light Freezing Fog
6:50 PM 15.8 °F 3.4 °F 15.8 °F 100% 30.27 in 0.2 mi SSW 10.4 mph 17.3 mph N/A Fog Light Freezing Fog
7:10 PM 15.8 °F 0.9 °F 15.8 °F 100% 30.27 in 0.5 mi SSW 15.0 mph - N/A Fog Light Freezing Fog
7:30 PM 15.8 °F 0.3 °F 14.0 °F 93% 30.27 in 0.5 mi SSW 16.1 mph 20.7 mph N/A Fog Light Freezing Fog
7:49 PM 15.8 °F -1.1 °F 14.0 °F 93% 30.28 in 0.8 mi SW 19.6 mph - N/A   Overcast
8:10 PM 14.0 °F -3.0 °F 14.0 °F 100% 30.27 in 0.8 mi SW 18.4 mph - N/A   Overcast
8:30 PM 14.0 °F 1.2 °F 14.0 °F 100% 30.29 in 0.8 mi SW 10.4 mph - N/A   Overcast
8:50 PM 14.0 °F -0.2 °F 12.2 °F 93% 30.29 in 10.0 mi WSW 12.7 mph - N/A   Scattered Clouds
9:10 PM 14.0 °F 2.0 °F 12.2 °F 93% 30.29 in 0.5 mi West 9.2 mph - N/A Fog Light Freezing Fog
9:30 PM 14.0 °F 2.0 °F 10.4 °F 86% 30.29 in 10.0 mi West 9.2 mph - N/A   Scattered Clouds
9:50 PM 14.0 °F 1.2 °F 8.6 °F 79% 30.30 in 10.0 mi WSW 10.4 mph - N/A   Clear
10:09 PM 14.0 °F 2.0 °F 8.6 °F 79% 30.31 in 10.0 mi WSW 9.2 mph - N/A   Clear
10:30 PM 14.0 °F 2.0 °F 5.0 °F 67% 30.31 in 10.0 mi WNW 9.2 mph - N/A   Clear
10:49 PM 17.6 °F 10.7 °F -0.4 °F 45% 30.30 in 10.0 mi NE 4.6 mph - N/A   Clear
11:07 PM 15.8 °F 7.2 °F -0.4 °F 49% 30.30 in 10.0 mi ENE 5.8 mph - N/A   Clear
11:28 PM 17.6 °F 8.2 °F -2.2 °F 42% 30.31 in 10.0 mi NNE 6.9 mph - N/A   Clear
11:47 PM 17.6 °F 9.3 °F 1.4 °F 49% 30.32 in 10.0 mi WSW 5.8 mph - N/A   Clear